Torna al catalogo

DELTA 1 DEB

AttivoPO
NORAD 21515·DEBRIS·🇺🇸 United States

Lanciato Jun 12, 1975 da Vandenberg Space Force Base

Loading…

Prossimi Passaggi (prossime 24 ore)

TLE

AggiornatoSource: Space-Track

Epoca: Sep 14, 2026, 09:21 UTC

1 21515U 75052GL  26257.38969218 -.00000448  00000-0 -11680-2 0  9997
2 21515  99.6956 297.2863 0273556  30.9706  86.1065 12.98811167674265

Traccia DELTA 1 DEB in tempo reale con AllMySat

Download on the App Store